Wetbulb
53.39 53.51 52.68 52.81 52.66 53.02 52.52 52.64 52.68 52.70 52.79 52.77 52.82 52.69 52.48 52.09 52.36 56.68 58.35 57.30 56.99 57.08 57.63 58.86 58.86 58.95 59.28 59.73 60.23 59.72 58.70 58.57 58.51 58.08 58.32 60.08 60.86 62.07 63.23 63.48 63.33 62.80 62.65
53.78 53.74 53.38 52.87 52.88 52.83 52.95 52.79 52.37 52.45 52.60 52.70 52.40 52.74 52.39 52.04 51.65 54.39 58.01 58.41 56.07 56.25 56.30 56.49 56.37 56.27 56.40 56.98 57.47 57.97 58.08 57.72 57.17 57.04 57.36 58.31 58.92 59.86 61.57 61.94 62.55 63.15 63.26
53.68 53.81 53.96 53.74 53.11 53.27 52.83 53.43 53.21 53.43 53.04 52.66 52.43 52.73 52.21 52.10 51.81 52.79 56.81 57.92 57.62 54.21 54.80 55.19 54.70 54.45 54.15 54.40 55.01 55.13 55.01 55.16 55.62 55.59 55.75 56.33 56.95 58.06 59.73 60.94 60.00 60.52 61.16
54.32 54.84 54.88 54.49 53.98 53.75 53.31 53.27 52.84 52.31 52.42 52.07 52.08 52.37 51.91 52.15 51.47 52.00 55.81 57.62 57.89 56.34 54.10 53.73 54.20 53.41 53.93 55.01 55.14 55.02 54.58 54.63 54.78 54.92 55.39 55.66 55.86 56.63 58.12 59.45 59.90 58.22 58.60
54.07 55.36 55.33 55.05 54.48 54.22 53.64 52.92 52.86 51.77 51.25 51.33 51.10 51.71 51.64 51.53 51.87 54.65 55.52 56.33 56.76 56.09 55.67 52.49 51.14 50.49 51.55 53.23 54.71 55.78 56.03 55.40 54.90 54.91 54.86 55.11 55.38 55.76 56.86 58.17 59.44 59.04 57.77
54.26 55.03 55.44 54.98 54.75 54.28 53.66 53.07 51.94 52.32 50.90 50.61 50.16 50.59 51.83 52.05 53.95 54.29 54.17 55.14 55.76 55.30 55.13 54.35 53.94 52.94 49.06 50.97 52.30 53.51 54.67 55.45 55.33 55.21 55.09 55.06 54.96 55.27 55.85 56.94 58.54 57.94 57.24
54.90 54.81 55.62 54.97 54.66 53.74 52.61 51.75 51.68 50.65 50.98 50.78 50.44 50.45 51.06 51.15 51.02 50.91 52.09 52.52 52.10 51.68 51.02 50.75 50.85 50.73 50.62 50.01 50.31 51.23 53.27 54.40 55.36 55.40 55.00 54.95 55.22 55.08 55.36 56.18 56.91 58.00 57.33
55.34 54.99 54.74 54.67 54.00 53.87 52.94 52.06 51.07 50.66 50.74 49.89 46.93 48.08 46.03 48.34 50.39 49.46 50.96 50.33 50.18 51.02 50.16 49.45 48.88 48.83 49.04 48.99 48.83 48.52 50.20 51.92 53.43 54.42 54.73 54.95 55.30 55.54 55.40 55.78 56.25 56.56 57.10
54.93 54.81 54.14 54.09 54.00 54.01 53.09 52.24 51.25 49.37 48.17 49.63 48.02 46.66 43.46 43.11 44.29 49.05 48.61 49.02 48.68 48.91 48.38 47.61 47.77 47.46 47.81 48.12 47.97 49.03 49.24 50.18 52.53 53.95 54.52 54.91 55.58 55.62 56.02 55.91 55.94 56.30 56.57
54.04 54.33 53.96 53.42 53.87 53.76 52.85 52.08 51.17 50.51 49.35 46.58 48.85 47.94 47.87 46.15 41.55 40.61 46.85 47.63 47.62 46.26 46.62 46.70 46.11 46.80 47.30 47.96 46.16 46.29 46.76 47.59 49.99 51.97 53.30 54.22 55.32 56.06 56.82 56.92 56.95 56.19 56.11
53.59 53.31 53.23 52.80 52.92 53.13 52.01 50.89 50.19 49.48 49.04 47.40 46.60 46.32 46.12 45.95 45.09 42.17 39.29 42.38 44.95 45.54 45.39 45.40 45.30 46.20 47.12 47.52 47.92 45.67 45.86 46.88 48.72 49.79 51.29 52.52 53.74 54.55 56.15 57.19 57.21 57.03 56.44
53.08 52.82 52.26 52.67 52.25 51.00 49.62 48.79 48.21 46.88 47.05 46.57 46.44 45.73 43.91 42.33 41.88 41.76 40.30 40.93 40.20 42.27 43.62 44.03 44.17 45.58 46.69 47.05 44.45 44.08 44.60 45.64 46.87 48.33 50.04 51.19 51.49 52.64 53.54 54.69 55.74 56.63 56.17
51.39 51.45 51.06 50.07 48.66 46.77 45.68 45.87 45.42 45.06 44.93 44.41 43.85 43.48 43.91 43.37 43.49 42.26 40.53 39.14 38.14 40.44 41.20 43.24 44.03 44.08 45.41 45.64 44.54 42.83 43.08 43.94 45.04 46.66 48.39 49.54 49.26 49.28 49.70 51.06 52.85 54.49 55.32
51.58 49.44 47.65 46.11 44.35 43.96 44.10 44.27 44.25 44.24 43.60 43.48 42.22 42.33 42.04 42.27 42.45 41.74 40.01 37.93 35.66 37.47 39.41 39.55 42.19 44.02 44.04 44.08 42.56 42.36 42.02 42.54 42.88 44.50 46.20 46.40 46.00 45.97 46.60 47.93 48.78 49.99 51.53
48.50 46.07 44.84 43.68 43.35 43.06 42.73 42.65 42.92 42.20 42.22 42.18 41.98 41.73 41.05 41.43 41.60 41.12 40.51 39.49 36.72 32.86 34.36 38.72 38.54 42.78 43.26 42.16 42.10 41.93 41.69 41.85 42.40 42.79 43.21 43.57 43.60 43.95 44.85 45.60 46.43 47.28 47.86
45.48 44.02 43.11 42.65 42.25 42.01 41.80 41.53 41.67 41.47 40.79 41.56 41.00 40.58 40.56 40.77 40.61 40.77 40.46 39.93 38.97 36.39 33.03 38.21 39.01 40.15 41.15 40.68 41.81 41.29 41.39 41.13 41.76 42.09 42.43 42.60 43.06 43.25 43.67 44.35 44.69 45.25 46.34
43.66 42.71 42.17 41.73 41.25 40.93 40.85 40.49 40.47 40.32 39.91 40.33 40.80 40.05 39.41 39.99 39.60 39.98 40.44 39.84 38.59 37.93 34.49 36.89 39.02 40.03 39.47 39.52 40.49 41.27 41.37 40.82 41.19 41.35 41.66 42.37 42.78 42.95 43.04 43.20 43.43 44.02 44.58
42.37 42.08 41.33 40.79 40.27 39.97 40.16 39.72 39.63 40.20 39.70 39.45 39.62 39.31 38.84 38.88 38.84 39.50 39.43 38.69 38.24 38.45 36.31 34.15 37.04 37.83 38.32 39.94 40.04 39.58 39.51 39.93 39.89 40.58 40.99 41.45 42.04 41.98 42.24 42.53 42.76 43.12 43.52
41.22 40.55 40.14 39.63 39.32 39.43 39.55 40.42 40.39 40.14 39.98 39.59 39.14 38.40 38.33 38.38 37.83 38.39 38.62 38.19 38.34 37.62 37.29 35.82 35.26 37.71 38.11 39.19 38.72 39.31 38.87 39.42 39.69 39.95 40.14 40.35 40.76 41.20 41.52 42.10 42.25 42.22 42.12
40.19 39.84 39.45 39.01 38.98 39.33 40.09 40.29 40.15 39.79 39.65 39.38 39.04 38.67 38.48 38.11 37.72 37.92 37.73 37.64 37.63 37.19 36.73 36.13 35.56 35.69 36.40 37.68 37.91 36.10 36.32 38.65 38.04 39.29 39.76 40.01 40.38 40.41 40.89 41.23 41.44 41.20 41.04
39.45 39.14 38.68 38.86 39.25 39.64 39.87 39.88 39.47 39.30 39.18 38.95 39.06 38.91 39.08 38.91 39.08 38.61 37.86 37.59 37.17 36.47 36.40 35.68 34.90 34.97 34.83 35.09 34.72 36.69 35.52 36.40 37.43 38.50 37.81 38.62 39.30 39.47 39.59 40.08 40.14 40.03 40.44
38.82 38.57 38.76 39.45 40.08 39.66 39.17 38.21 38.63 38.18 38.22 37.81 37.34 37.85 38.18 38.71 38.41 38.58 38.55 38.98 39.28 36.98 35.95 35.72 35.21 33.90 34.35 35.62 36.21 35.66 34.98 33.43 31.66 38.90 36.60 35.85 38.24 37.44 38.18 39.10 39.91 40.24 40.37
38.57 39.59 39.84 39.21 37.83 37.62 36.97 37.61 38.06 37.66 37.20 37.15 36.74 36.39 36.02 36.33 37.36 36.52 37.12 37.42 37.57 38.11 38.52 37.76 35.53 35.21 34.82 36.07 36.25 35.11 34.64 33.34 32.82 36.59 36.27 33.16 37.68 36.03 38.16 37.94 39.31 40.06 40.13
39.17 38.20 37.15 36.61 35.99 35.88 35.91 36.37 36.84 36.73 36.36 36.24 36.12 35.88 35.38 35.31 36.16 35.56 35.34 35.01 35.57 36.02 36.16 36.38 36.33 36.62 36.85 37.53 37.24 36.46 35.48 35.69 36.85 36.05 36.78 33.01 35.65 35.05 36.67 38.00 39.38 39.17 38.96
36.69 35.96 35.33 34.84 34.63 34.91 35.41 35.14 35.75 35.71 35.18 35.30 35.89 36.11 35.78 35.33 36.19 36.70 35.45 34.77 34.83 35.58 37.72 37.94 37.82 38.25 38.59 38.66 38.62 37.57 35.44 33.74 32.21 33.61 36.05 33.82 33.67 33.88 34.86 35.86 37.58 38.39 38.23
34.13 34.12 33.77 34.45 34.34 33.78 34.54 34.80 35.33 35.18 34.13 34.42 35.43 35.81 36.50 36.03 36.53 36.75 35.27 34.60 33.55 34.25 35.60 35.97 36.43 37.14 37.76 37.61 38.02 37.21 35.42 32.03 31.90 30.53 33.89 31.83 32.29 32.76 30.13 34.73 35.97 37.25 36.71
MSLP
1020.61 1020.56 1020.59 1020.52 1020.50 1020.42 1020.26 1019.94 1019.68 1019.41 1019.16 1019.04 1018.76 1018.59 1018.39 1018.23 1018.07 1017.97 1017.90 1018.65 1018.57 1018.35 1018.08 1017.84 1017.67 1017.59 1017.43 1017.25 1017.15 1017.17 1017.06 1016.83 1016.76 1016.67 1016.76 1016.55 1016.28 1015.98 1015.64 1015.36 1015.28 1015.09 1014.99
1020.61 1020.64 1020.67 1020.74 1020.68 1020.62 1020.44 1020.18 1019.97 1019.73 1019.38 1019.18 1018.81 1018.54 1018.40 1018.27 1018.24 1018.07 1017.95 1018.11 1018.79 1018.76 1018.52 1018.30 1018.13 1017.89 1017.72 1017.60 1017.35 1017.31 1017.29 1017.00 1016.93 1016.93 1016.92 1016.71 1016.47 1016.23 1015.84 1015.65 1015.41 1015.17 1015.03
1020.58 1020.64 1020.70 1020.71 1020.84 1020.75 1020.55 1020.28 1020.06 1019.74 1019.43 1019.19 1018.81 1018.55 1018.46 1018.33 1018.25 1018.21 1018.13 1018.18 1018.32 1018.86 1018.91 1018.67 1018.56 1018.49 1018.21 1017.82 1017.54 1017.31 1017.22 1017.34 1017.35 1017.17 1016.96 1016.71 1016.49 1016.23 1015.98 1015.68 1015.53 1015.34 1015.33
1020.67 1020.68 1020.57 1020.62 1020.73 1020.63 1020.53 1020.25 1020.11 1019.84 1019.57 1019.31 1018.96 1018.68 1018.61 1018.57 1018.51 1018.43 1018.39 1018.35 1018.39 1018.38 1018.83 1019.09 1019.07 1018.94 1018.69 1018.37 1017.90 1017.51 1017.30 1017.05 1016.97 1017.05 1016.98 1016.76 1016.49 1016.21 1015.93 1015.67 1015.47 1015.38 1015.39
1020.73 1020.61 1020.53 1020.64 1020.73 1020.53 1020.37 1020.32 1020.07 1020.09 1019.70 1019.43 1019.14 1018.88 1018.93 1018.83 1018.70 1018.56 1018.53 1018.59 1018.64 1018.68 1018.62 1019.02 1019.09 1019.04 1018.93 1018.70 1018.37 1017.95 1017.57 1017.29 1017.01 1016.73 1016.60 1016.65 1016.54 1016.24 1015.83 1015.51 1015.33 1015.15 1015.22
1020.64 1020.59 1020.62 1020.61 1020.59 1020.40 1020.31 1020.28 1020.22 1020.10 1020.09 1019.81 1019.32 1018.92 1018.93 1018.88 1018.72 1018.64 1018.61 1018.64 1018.72 1018.80 1018.79 1018.83 1018.74 1018.56 1018.88 1018.73 1018.55 1018.23 1017.88 1017.51 1017.10 1016.76 1016.49 1016.27 1016.23 1016.23 1015.95 1015.59 1015.30 1015.09 1014.97
1020.50 1020.56 1020.59 1020.64 1020.61 1020.53 1020.56 1020.56 1020.47 1020.30 1019.90 1019.94 1019.15 1018.68 1018.76 1018.93 1018.87 1018.82 1018.76 1018.74 1018.92 1019.04 1019.06 1018.95 1018.76 1018.58 1018.37 1018.52 1018.33 1018.30 1018.00 1017.54 1017.14 1016.82 1016.55 1016.26 1015.99 1015.82 1015.77 1015.56 1015.23 1014.98 1014.83
1020.44 1020.52 1020.56 1020.65 1020.71 1020.65 1020.66 1020.70 1020.67 1020.36 1020.26 1020.46 1020.03 1019.38 1018.56 1018.46 1018.69 1018.91 1019.02 1019.01 1019.07 1019.07 1018.88 1018.91 1018.85 1018.62 1018.52 1018.25 1018.22 1018.31 1018.04 1017.70 1017.37 1016.89 1016.53 1016.28 1015.91 1015.59 1015.39 1015.24 1015.08 1014.86 1014.66
1020.36 1020.54 1020.59 1020.66 1020.75 1020.76 1020.72 1020.81 1020.87 1020.80 1020.48 1020.52 1020.68 1020.32 1019.37 1018.89 1019.07 1018.92 1019.12 1019.20 1019.20 1018.98 1018.72 1018.77 1018.64 1018.54 1018.57 1018.39 1018.28 1017.99 1018.10 1017.81 1017.28 1016.86 1016.42 1016.00 1015.66 1015.24 1015.02 1014.84 1014.72 1014.61 1014.35
1020.26 1020.55 1020.64 1020.73 1020.75 1020.83 1020.92 1020.97 1021.12 1021.07 1021.00 1020.67 1020.81 1020.93 1020.89 1020.77 1019.93 1019.00 1018.76 1018.94 1019.15 1018.97 1018.93 1018.68 1018.54 1018.48 1018.53 1018.41 1018.60 1018.56 1018.31 1017.80 1017.38 1017.02 1016.59 1016.15 1015.59 1015.12 1014.73 1014.38 1014.23 1014.15 1014.13
1020.28 1020.54 1020.66 1020.80 1020.92 1021.01 1021.10 1021.11 1021.14 1021.15 1021.20 1021.08 1021.02 1020.97 1020.95 1020.85 1020.82 1020.34 1019.17 1018.64 1018.82 1018.85 1018.98 1018.79 1018.60 1018.33 1018.46 1018.31 1018.31 1018.47 1018.54 1018.10 1017.67 1017.01 1016.64 1016.22 1015.68 1015.17 1014.73 1014.25 1013.79 1013.75 1013.92
1020.24 1020.50 1020.79 1020.86 1021.03 1021.11 1021.17 1021.24 1021.32 1021.39 1021.33 1021.28 1021.20 1021.21 1021.10 1020.90 1020.59 1020.50 1019.85 1019.25 1019.04 1018.73 1018.76 1018.65 1018.44 1018.36 1018.41 1018.35 1018.47 1018.54 1018.29 1018.16 1017.83 1017.24 1016.76 1016.16 1015.68 1015.28 1014.82 1014.38 1014.36 1013.81 1013.65
1020.20 1020.52 1020.77 1020.92 1021.04 1021.27 1021.40 1021.45 1021.49 1021.54 1021.52 1021.48 1021.51 1021.40 1021.42 1021.24 1021.17 1020.97 1020.61 1019.91 1019.28 1018.97 1018.87 1018.74 1018.68 1018.62 1018.66 1018.45 1018.31 1018.30 1017.99 1017.92 1017.73 1017.23 1016.61 1016.17 1015.79 1015.56 1015.42 1015.10 1014.65 1014.14 1013.77
1020.09 1020.53 1020.81 1020.96 1021.19 1021.40 1021.55 1021.62 1021.61 1021.64 1021.71 1021.74 1021.79 1021.82 1021.66 1021.45 1021.42 1021.23 1021.01 1020.65 1019.73 1018.85 1018.50 1018.17 1018.59 1018.75 1018.64 1018.56 1018.20 1018.26 1017.64 1017.58 1017.50 1017.13 1016.65 1016.36 1016.03 1015.74 1015.44 1015.20 1014.91 1014.54 1014.16
1020.36 1020.65 1020.87 1021.12 1021.36 1021.51 1021.59 1021.62 1021.59 1021.59 1021.69 1021.73 1021.77 1021.75 1021.60 1021.35 1021.31 1021.11 1021.03 1020.92 1020.45 1019.19 1018.32 1017.86 1018.27 1018.29 1018.46 1018.31 1018.10 1017.99 1017.52 1017.16 1017.12 1016.78 1016.48 1016.25 1016.01 1015.61 1015.19 1014.90 1014.75 1014.54 1014.34
1020.46 1020.72 1020.95 1021.07 1021.26 1021.43 1021.62 1021.75 1021.71 1021.69 1021.64 1021.48 1021.47 1021.41 1021.25 1021.15 1021.09 1020.97 1020.86 1020.53 1020.35 1019.77 1018.52 1017.94 1017.88 1018.00 1018.16 1017.82 1017.73 1017.63 1017.27 1017.04 1016.66 1016.48 1016.19 1015.90 1015.64 1015.30 1015.00 1014.68 1014.43 1014.29 1014.14
1020.53 1020.73 1020.96 1021.23 1021.40 1021.53 1021.64 1021.64 1021.59 1021.62 1021.56 1021.29 1021.12 1021.12 1020.96 1020.77 1020.61 1020.44 1020.37 1020.19 1019.90 1019.47 1018.66 1017.95 1017.71 1017.66 1017.67 1017.49 1017.13 1017.02 1016.85 1016.52 1016.07 1015.93 1015.81 1015.54 1015.31 1015.04 1014.78 1014.52 1014.26 1014.03 1013.91
1020.58 1020.84 1021.12 1021.32 1021.45 1021.58 1021.61 1021.59 1021.54 1021.36 1021.24 1020.98 1020.77 1020.64 1020.47 1020.15 1020.03 1019.88 1019.74 1019.42 1019.17 1018.87 1018.55 1017.67 1017.46 1017.25 1017.15 1016.94 1016.73 1016.63 1016.35 1016.01 1015.66 1015.44 1015.34 1015.16 1014.88 1014.64 1014.39 1014.22 1013.96 1013.74 1013.55
1020.76 1021.01 1021.21 1021.32 1021.42 1021.46 1021.48 1021.40 1021.32 1021.08 1020.82 1020.53 1020.31 1020.00 1019.69 1019.59 1019.34 1019.08 1019.00 1018.81 1018.57 1018.13 1017.90 1017.49 1016.88 1017.00 1016.72 1016.46 1016.14 1015.92 1015.68 1015.35 1015.21 1015.22 1014.99 1014.64 1014.33 1014.06 1013.93 1013.70 1013.48 1013.30 1013.22
1020.83 1021.09 1021.29 1021.39 1021.41 1021.42 1021.40 1021.21 1020.99 1020.70 1020.37 1020.13 1019.87 1019.63 1019.29 1019.10 1018.87 1018.55 1018.26 1017.97 1017.69 1017.45 1017.29 1016.94 1016.42 1016.27 1016.23 1015.96 1015.70 1015.40 1014.89 1014.64 1014.39 1014.23 1014.10 1013.89 1013.71 1013.55 1013.40 1013.18 1012.98 1012.79 1012.68
1021.04 1021.21 1021.28 1021.33 1021.35 1021.31 1021.10 1020.97 1020.76 1020.40 1019.95 1019.59 1019.33 1019.00 1018.68 1018.54 1018.43 1018.21 1017.95 1017.36 1017.14 1016.81 1016.65 1016.31 1015.83 1015.72 1015.50 1015.21 1014.76 1014.57 1014.41 1014.17 1013.88 1013.75 1013.54 1013.32 1012.98 1012.76 1012.54 1012.38 1012.16 1012.18 1012.14
1021.00 1021.14 1021.19 1021.23 1021.15 1021.03 1021.05 1021.08 1020.84 1020.23 1019.69 1019.17 1018.65 1018.43 1018.17 1017.97 1017.68 1017.48 1017.20 1016.90 1016.72 1016.23 1015.79 1015.57 1015.28 1014.93 1014.63 1014.54 1014.33 1014.16 1013.99 1013.83 1013.30 1013.16 1012.90 1012.81 1012.90 1012.22 1011.98 1011.63 1011.42 1011.53 1011.51
1021.09 1021.12 1021.08 1021.11 1021.03 1020.95 1020.97 1020.83 1020.46 1019.92 1019.33 1018.84 1018.51 1018.20 1017.75 1017.41 1017.24 1016.87 1016.41 1016.08 1015.78 1015.61 1015.26 1014.98 1014.45 1014.05 1013.81 1013.78 1013.73 1013.57 1013.52 1013.52 1013.25 1012.83 1012.76 1012.46 1012.19 1011.43 1011.08 1011.05 1010.98 1010.74 1010.61
1021.07 1021.15 1021.13 1021.06 1020.92 1020.74 1020.72 1020.52 1020.16 1019.56 1018.93 1018.52 1018.23 1017.84 1017.52 1017.06 1016.76 1016.53 1016.04 1015.48 1014.96 1014.58 1014.28 1014.13 1013.91 1013.56 1013.49 1013.40 1013.34 1013.29 1013.19 1012.99 1012.72 1012.70 1012.73 1011.45 1011.25 1010.57 1010.52 1010.12 1009.91 1009.93 1009.88
1021.16 1021.15 1021.12 1020.91 1020.71 1020.54 1020.49 1020.28 1019.88 1019.15 1018.52 1018.01 1017.69 1017.31 1017.13 1016.74 1016.31 1016.10 1015.51 1014.74 1014.11 1013.48 1013.33 1013.36 1013.48 1013.22 1013.06 1013.04 1013.00 1013.00 1012.72 1012.40 1011.78 1011.39 1011.44 1011.08 1010.83 1010.22 1010.01 1009.67 1009.31 1009.23 1009.16
1021.31 1021.20 1020.88 1020.75 1020.59 1020.41 1020.26 1020.11 1019.71 1018.97 1018.30 1017.55 1017.14 1016.71 1016.46 1016.19 1015.82 1015.45 1014.92 1014.15 1013.41 1012.83 1012.54 1012.22 1012.01 1012.00 1012.08 1012.01 1012.09 1012.30 1012.26 1011.97 1011.60 1010.74 1010.98 1010.90 1010.58 1010.31 1009.45 1008.96 1008.75 1008.74 1008.78
Wind_Speed
3 2 3 3 3 3 4 4 5 5 6 7 6 6 6 6 5 3 2 5 7 7 7 8 8 8 9 8 8 7 5 7 9 7 10 12 12 14 12 8 6 7 7
3 2 2 3 3 4 4 5 5 6 6 6 7 7 7 5 5 4 2 2 5 7 7 7 7 7 8 9 9 9 10 9 8 8 10 11 10 11 10 8 10 11 5
3 2 2 2 3 3 5 5 5 5 5 5 7 6 5 6 4 4 3 3 2 4 6 7 7 8 7 7 7 7 7 8 9 9 10 11 11 10 10 8 4 7 10
3 2 2 2 2 3 4 4 4 5 5 5 6 5 5 5 4 3 2 2 1 2 3 7 8 8 9 9 8 7 7 7 8 9 11 11 12 11 9 9 5 1 5
3 1 1 2 2 2 3 4 4 5 5 6 6 5 4 4 2 1 2 2 2 3 3 3 4 5 8 10 11 11 11 10 10 9 9 10 12 12 12 10 10 8 4
4 3 1 1 2 2 3 3 5 4 4 6 5 4 2 2 1 2 2 1 2 3 4 5 5 3 5 10 12 13 14 14 13 11 10 9 9 12 12 12 10 8 5
5 4 1 1 1 2 3 4 4 5 4 7 4 2 1 1 2 3 3 2 2 3 4 4 4 4 5 9 10 13 15 15 15 14 13 11 11 10 11 12 11 11 9
4 3 3 2 1 1 1 3 4 3 3 6 5 3 3 3 2 3 2 1 2 2 4 5 8 7 6 6 6 10 11 12 14 15 15 14 13 11 11 12 12 12 12
4 5 4 3 2 1 1 2 3 4 3 3 5 4 3 3 7 2 2 3 4 5 6 7 6 7 7 6 6 3 12 13 14 14 14 15 16 15 13 12 12 14 13
4 5 4 3 2 1 0 1 1 2 2 3 0 2 2 3 4 5 1 2 5 8 7 5 7 5 5 3 2 4 11 12 13 15 16 17 18 18 16 15 14 14 14
3 4 4 4 3 1 1 0 1 0 1 2 2 1 1 2 4 4 8 5 7 4 7 7 6 4 3 2 1 6 12 14 15 15 16 17 18 18 19 19 15 14 13
3 3 4 3 3 2 2 1 1 1 1 1 1 2 3 3 4 5 7 9 10 7 6 6 7 4 3 1 3 8 12 13 14 15 16 16 17 18 19 19 20 18 13
3 4 4 4 3 3 2 2 2 2 2 2 2 3 3 4 4 5 7 9 9 9 6 7 4 5 3 3 5 11 14 13 14 15 14 15 15 16 17 19 21 20 17
3 5 4 3 4 3 3 2 2 1 2 2 4 4 4 4 4 5 6 8 10 9 9 7 5 4 4 4 9 12 8 11 14 15 15 14 13 12 14 16 17 19 19
3 5 4 4 3 3 3 2 2 2 2 3 4 5 5 5 5 5 6 6 8 9 10 5 4 4 5 8 9 9 10 12 15 14 13 13 13 13 13 13 15 16 17
5 5 4 4 4 3 2 2 2 3 4 4 4 7 7 6 7 7 7 7 8 9 10 7 7 10 10 8 10 10 10 12 14 14 13 13 13 12 13 13 13 14 16
5 5 4 3 3 2 2 4 4 5 6 7 7 8 10 9 8 8 8 8 9 9 12 11 10 10 11 11 9 9 9 10 9 12 12 13 14 14 15 14 14 15 15
4 3 3 3 3 3 4 5 5 6 8 9 10 10 11 8 11 11 9 12 11 11 10 15 11 10 12 11 11 11 9 8 8 12 13 14 15 15 15 15 15 15 15
3 3 2 3 3 4 5 5 6 9 10 10 11 12 12 12 12 10 11 11 11 10 11 11 11 10 10 9 10 10 9 9 8 11 15 15 17 16 16 15 15 15 15
2 2 2 3 4 5 6 7 9 10 11 11 12 12 13 13 14 14 12 14 13 12 12 11 11 11 9 10 8 9 8 7 8 8 10 14 16 16 17 17 17 17 16
1 1 2 3 4 5 5 8 10 12 13 13 13 13 13 14 16 18 11 14 14 12 10 10 11 10 10 10 10 7 9 9 9 9 9 7 7 7 9 14 15 16 16
1 1 2 4 6 5 7 12 13 12 13 14 14 14 14 15 16 21 22 25 21 16 15 11 11 12 14 11 10 9 9 9 11 8 8 9 10 10 10 10 15 17 19
2 2 4 5 7 8 10 14 16 12 13 13 13 13 13 11 14 15 19 21 20 23 25 17 17 16 15 13 12 12 11 10 10 11 9 10 11 11 10 10 18 21 19
3 4 5 6 7 8 12 14 16 13 11 13 13 13 14 15 14 15 15 15 16 15 15 12 15 16 15 14 13 10 12 12 11 8 10 13 11 11 11 10 17 16 20
4 5 6 7 8 9 11 14 14 11 11 13 12 13 13 14 18 20 16 15 16 15 13 18 21 23 21 20 19 10 10 10 11 11 10 11 10 11 10 8 10 17 16
5 5 7 7 9 9 10 13 13 9 12 11 13 13 16 15 19 20 16 16 14 15 13 15 13 15 17 15 17 11 9 10 10 12 7 6 8 6 7 8 7 4 9
Wind_Direction
107 102 75 46 32 10 9 2 354 349 348 349 347 341 331 328 317 316 317 50 16 10 7 3 1 3 358 358 7 14 9 11 8 13 327 329 341 350 360 360 307 285 277
122 97 82 48 35 10 360 347 353 347 340 340 335 341 335 323 308 293 299 117 43 18 6 10 9 7 355 347 351 352 351 355 348 337 324 319 328 335 349 1 28 31 10
134 110 71 51 28 3 346 348 350 338 337 338 333 333 330 327 301 273 280 311 135 108 20 11 7 0 353 345 339 345 348 340 328 322 318 320 321 323 328 339 354 22 15
137 110 71 54 22 7 352 348 350 341 345 342 337 344 340 326 319 291 297 288 319 326 132 27 10 5 356 344 337 329 318 317 319 309 314 316 317 314 312 321 306 334 13
157 150 87 66 16 7 1 349 349 348 340 347 338 347 357 3 30 1 356 311 345 317 335 84 1 350 347 338 331 326 320 317 314 307 306 309 312 312 309 308 313 274 279
179 207 191 90 1 350 1 354 344 354 355 346 329 345 17 40 69 30 355 311 347 330 335 334 328 343 334 335 332 327 317 307 300 302 304 300 299 305 304 298 290 277 274
200 207 204 212 330 352 7 358 345 353 9 352 312 344 212 176 25 358 356 7 48 41 15 341 328 325 320 318 318 330 323 316 304 299 297 298 295 288 294 293 283 273 252
200 207 215 216 228 264 12 17 13 351 21 16 349 293 338 178 175 2 1 61 70 333 323 324 320 312 313 311 336 328 336 326 315 305 297 295 291 285 279 282 282 270 266
190 209 205 211 192 279 14 27 16 11 3 49 30 347 317 341 334 118 272 284 304 312 320 323 317 314 320 316 314 351 7 351 340 325 307 295 290 287 281 268 269 272 262
186 199 204 204 203 203 275 42 37 17 327 6 71 30 357 324 327 310 241 280 310 310 314 307 316 312 319 314 346 15 350 340 333 327 318 314 310 299 284 278 264 261 265
197 197 203 192 191 205 152 157 166 261 339 328 340 325 292 275 269 276 300 316 308 301 308 313 311 312 301 300 311 1 343 337 329 322 314 309 305 302 303 294 281 264 268
185 187 184 187 174 177 181 168 140 221 242 240 251 266 298 312 312 285 293 303 313 314 312 301 308 317 307 221 326 342 334 326 323 319 313 307 305 305 303 305 317 298 273
189 175 178 175 175 168 168 164 183 209 229 283 308 306 281 278 290 289 292 294 297 302 300 296 296 310 278 297 328 339 323 318 320 315 310 311 314 312 305 306 308 306 309
178 158 170 175 172 171 164 181 205 243 292 296 286 282 294 287 276 275 282 299 299 298 288 291 296 263 269 284 310 317 310 308 309 309 309 311 310 310 307 301 303 304 303
157 168 173 177 173 178 195 208 254 283 289 293 290 288 284 285 272 267 265 268 280 292 297 299 283 250 269 303 302 299 299 302 306 305 303 301 305 304 300 302 302 299 297
165 166 178 186 190 197 209 273 291 293 289 288 287 290 288 281 275 267 263 262 256 266 276 282 280 285 294 291 291 292 294 298 290 298 298 297 296 304 304 301 300 298 295
174 185 187 198 210 228 245 264 275 292 291 296 291 286 284 279 269 269 265 263 261 257 266 275 278 281 283 284 285 286 289 287 287 285 289 292 295 298 300 299 298 295 292
172 182 192 211 230 251 263 277 287 293 295 294 293 285 274 275 271 271 267 264 261 261 265 274 280 283 279 281 284 284 282 279 281 286 290 292 287 290 292 292 293 288 287
166 158 207 243 267 283 287 287 292 291 288 283 279 279 280 279 273 270 266 265 266 264 261 265 270 274 276 277 278 275 271 273 271 271 276 281 286 292 292 285 283 282 283
165 180 232 272 284 289 287 294 293 294 291 287 285 282 282 280 277 278 274 270 267 264 262 261 265 270 271 275 271 274 278 278 283 285 278 276 282 283 289 288 284 283 280
154 200 288 275 273 282 291 312 307 300 295 294 293 287 283 279 278 272 274 271 270 267 265 264 267 269 270 268 263 279 283 286 288 287 285 287 285 292 290 282 275 272 270
136 233 255 282 295 295 319 308 303 301 297 294 293 293 292 291 280 282 277 273 266 266 263 260 264 265 271 274 275 273 280 288 291 278 278 288 294 283 282 275 287 284 281
162 265 296 305 307 309 311 310 312 302 301 297 297 297 297 296 295 290 290 287 277 271 263 267 266 266 271 271 274 278 278 281 276 284 298 280 281 282 282 277 274 265 271
340 322 315 315 312 307 313 317 316 302 301 298 298 297 298 302 301 303 299 292 283 274 266 258 258 263 269 272 273 279 277 279 282 278 249 273 292 285 290 285 278 278 276
320 312 313 316 312 311 320 319 319 309 302 302 303 302 306 301 304 307 300 289 283 277 270 255 259 266 264 262 258 269 270 282 283 280 289 288 288 287 292 285 285 276 282
313 314 309 305 306 306 319 324 326 316 307 310 309 306 304 306 306 303 299 296 289 286 283 278 268 252 248 254 260 270 282 281 283 284 282 276 284 285 289 284 270 278 317